Location: Peterborough
(44.3091°N, 78.3197°W)
Time: 05:01:05
(UTC-04:00)

Tiros 1 despin weight - Pass Details

Date: 23 March 2023
Orbit: 586 x 632 km, 48.2° (Epoch: 08 June)

Event Time Altitude Azimuth Distance (km) Brightness Sun altitude
Rises 00:32:22 0° 261° (W) 2,814 - -43.5°
Reaches altitude 10° 00:34:39 10° 264° (W) 1,919 - -43.7°
Maximum altitude 00:39:01 63° 346° (NNW) 671 - -43.9°
Drops below altitude 10° 00:43:27 10° 68° (ENE) 1,950 - -44.0°
Sets 00:45:48 0° 72° (ENE) 2,864 - -44.1°
